This is the latest recevied weather packets stored in our database for station/object YO6IKB-10. If no packets are shown the sender has not sent any weather packets the latest 10 day(s).
| Time | Temp. | Humidity | Pressure | Rain* | Wind** | Luminosity | Snow |
|---|---|---|---|---|---|---|---|
| 1777613210 | 3.33° C | 83% | 1021 hPa | 0 mm | - | - | - |
| 1777612909 | 3.33° C | 85% | 1020.9 hPa | 0 mm | - | - | - |
| 1777612609 | 2.78° C | 85% | 1020.9 hPa | 0 mm | - | - | - |
| 1777612309 | 2.78° C | 86% | 1020.9 hPa | 0 mm | - | - | - |
| 1777612008 | 2.78° C | 86% | 1020.9 hPa | 0 mm | - | - | - |
| 1777611708 | 2.22° C | 87% | 1020.9 hPa | 0 mm | - | - | - |
| 1777611408 | 1.67° C | 87% | 1020.9 hPa | 0 mm | - | - | - |
| 1777611108 | 1.11° C | 87% | 1020.9 hPa | 0 mm | - | - | - |
| 1777610807 | 1.11° C | 87% | 1021 hPa | 0 mm | - | - | - |
| 1777610507 | 1.11° C | 87% | 1020.8 hPa | 0 mm | - | - | - |
| 1777610207 | 0.56° C | 87% | 1020.9 hPa | 0 mm | - | - | - |
| 1777609907 | 0.56° C | 87% | 1020.9 hPa | 0 mm | - | - | - |
| 1777609606 | 0.56° C | 87% | 1020.8 hPa | 0 mm | - | - | - |
| 1777609306 | 0.56° C | 87% | 1020.9 hPa | 0 mm | - | - | - |
| 1777609006 | 0° C | 87% | 1020.9 hPa | 0 mm | - | - | - |
| 1777608705 | 0° C | 87% | 1020.8 hPa | 0 mm | - | - | - |
| 1777608405 | 0° C | 87% | 1020.8 hPa | 0 mm | - | - | - |
| 1777608105 | 0° C | 86% | 1020.8 hPa | 0 mm | - | - | - |
| 1777607804 | 0° C | 87% | 1020.7 hPa | 0 mm | - | - | - |
| 1777607504 | 0° C | 87% | 1020.8 hPa | 0 mm | - | - | - |
| 1777607204 | 0° C | 86% | 1020.8 hPa | 0 mm | - | - | - |
| 1777606904 | 0° C | 86% | 1020.7 hPa | 0 mm | - | - | - |
| 1777606603 | -0.56° C | 86% | 1020.8 hPa | 0 mm | - | - | - |
| 1777606303 | -0.56° C | 86% | 1020.8 hPa | 0 mm | - | - | - |
| 1777606003 | -1.11° C | 86% | 1020.8 hPa | 0 mm | - | - | - |
* Rain latest hour (hover to see other rain measurements)
** Current wind speed in m/s (hover to see current wind gust speed)